Wind_Speed
19 20 21 21 22 23 23 23 21 19 18 17 17 16 16 16 16 15 13 12 11 9 7 6 6 6 7 7 8 8 8 9 9 10 11 12 12 13 14 15 16 17 18 18 17 16 15 16 16 18 20 22 25 25 25 28 27 26 28 26 24 25 26 28 32 35 36 36 37 36 36 36 36 33 32 32 32 31 29 27 26 24 22 21 19 16 13 13
20 21 21 22 23 23 23 23 21 19 18 17 17 16 16 16 16 15 13 12 11 9 8 7 7 7 8 8 8 8 8 8 8 9 10 10 11 11 12 13 14 15 16 17 17 16 16 15 15 16 18 20 23 24 24 28 28 25 25 24 23 24 26 27 30 33 33 33 34 35 35 35 36 33 32 32 32 31 28 27 27 26 23 22 21 19 16 14
20 21 21 22 23 23 23 23 21 19 18 17 17 17 16 16 16 15 13 12 11 10 9 8 7 8 8 9 9 9 8 8 7 8 8 9 9 10 11 12 12 13 13 15 16 16 16 15 14 15 16 17 20 22 22 27 27 23 22 21 21 23 25 28 29 30 31 32 32 33 33 33 34 32 31 31 29 29 27 26 26 26 24 22 21 20 17 15
21 22 22 22 23 24 24 23 21 19 18 18 18 17 17 16 16 15 14 12 11 10 9 8 8 8 9 9 9 9 8 8 7 7 7 7 8 8 9 10 11 11 11 12 13 14 15 15 15 14 15 15 17 19 20 24 24 20 18 18 20 22 23 25 27 28 30 31 32 32 32 32 33 31 30 29 27 26 25 23 23 24 23 21 21 20 19 17
21 22 22 23 23 23 23 23 21 19 18 18 18 18 17 17 16 15 14 13 11 10 9 9 9 9 9 10 10 9 9 8 7 6 6 6 6 7 8 9 10 10 10 10 11 12 13 14 14 14 14 14 16 17 17 20 21 18 17 17 20 23 22 23 24 26 27 28 29 30 30 30 30 29 29 27 26 26 24 23 22 22 23 22 22 21 21 20
21 22 22 23 23 23 23 22 21 19 18 18 18 18 18 17 17 16 15 13 12 11 10 9 9 10 10 10 10 10 9 7 6 5 5 4 5 5 6 7 9 10 10 10 9 10 11 12 13 14 14 15 16 16 15 17 18 16 15 15 18 22 21 22 23 23 25 26 27 28 28 27 27 26 26 26 25 25 24 23 22 21 22 24 24 23 22 21
21 22 22 23 24 23 23 22 21 20 19 19 19 19 18 17 17 16 15 13 12 11 10 10 10 10 11 11 11 11 10 8 7 5 4 3 3 4 4 5 7 8 9 9 9 9 9 10 11 12 12 14 16 17 14 14 16 15 12 12 14 17 19 20 22 22 23 24 25 26 26 27 26 25 24 23 23 23 23 23 22 22 22 23 23 23 22 21
21 22 22 23 24 23 23 22 21 20 19 19 20 19 19 18 17 16 15 14 13 12 11 11 11 11 12 12 12 11 10 9 8 6 5 3 2 2 2 3 5 7 8 8 8 8 9 9 10 10 10 12 14 16 15 14 15 13 10 9 11 14 16 17 19 20 20 21 22 23 24 25 25 24 22 20 20 20 20 20 20 20 20 20 20 21 20 19
22 22 22 23 24 23 23 23 22 21 20 20 20 20 19 18 17 16 15 15 14 13 12 12 12 12 12 13 13 12 11 10 9 8 6 4 3 2 1 1 3 4 6 7 7 7 8 9 9 10 9 10 12 13 13 14 15 13 10 9 8 11 14 15 15 17 17 18 20 21 21 21 20 20 17 16 17 18 18 18 17 17 17 16 15 16 17 16
22 22 23 24 24 24 23 23 23 21 21 21 21 21 20 19 18 16 16 16 15 14 13 13 13 13 13 13 13 13 12 11 10 9 8 6 5 3 2 1 2 3 4 5 6 6 7 8 9 9 9 10 11 12 11 12 12 12 11 10 9 10 11 11 13 14 15 16 17 18 17 16 15 14 13 14 15 16 16 16 15 14 14 14 13 13 13 13
23 23 23 24 25 24 24 24 23 22 21 21 21 21 21 20 19 17 17 17 16 15 15 14 14 13 13 13 14 14 13 12 11 11 10 9 7 6 4 3 3 3 3 3 4 5 5 6 7 7 8 9 10 11 11 10 10 10 10 10 11 11 9 9 9 11 14 14 14 14 14 14 15 15 14 13 13 14 14 13 13 12 10 10 11 12 11 11
23 23 23 24 25 25 25 25 24 23 22 22 22 22 21 21 19 19 18 17 17 16 15 15 14 14 14 14 14 14 13 13 13 12 12 11 10 9 7 6 5 4 4 3 3 3 4 4 5 6 6 7 8 10 10 9 9 8 9 10 10 11 10 8 8 9 11 12 12 12 12 12 14 14 13 12 11 11 12 11 10 9 8 8 9 9 10 9
24 24 24 25 25 25 26 26 25 24 23 22 22 22 22 21 20 19 19 18 18 17 16 15 14 14 14 13 14 14 14 14 14 13 13 13 12 11 10 9 8 7 6 5 4 3 2 2 3 4 4 5 6 7 7 8 8 9 9 9 10 10 9 8 8 9 10 10 10 10 10 10 11 11 11 12 11 9 9 9 8 7 7 7 8 8 7 6
24 24 24 25 26 26 26 27 26 25 24 23 23 23 23 22 21 20 20 20 19 18 17 16 15 14 14 14 14 15 14 14 15 14 14 14 13 13 12 11 11 10 9 8 6 5 4 3 1 1 2 3 4 5 5 5 6 7 8 8 9 10 8 7 7 9 8 7 7 8 8 8 8 9 10 10 10 9 8 7 6 6 7 7 7 7 6 5
24 24 24 25 25 26 27 27 27 26 25 23 23 23 23 23 22 21 21 21 20 19 17 16 15 16 15 16 16 16 16 15 16 16 16 16 15 14 14 14 13 13 12 11 9 8 7 6 5 3 1 1 2 2 3 3 4 5 6 6 8 9 8 8 8 8 7 5 5 5 6 6 6 6 6 7 8 7 7 6 6 6 6 6 6 5 5 4
24 24 24 24 25 26 27 27 28 28 26 25 24 23 24 23 23 23 22 22 21 20 18 17 17 18 17 17 17 17 17 17 17 18 18 17 17 16 16 16 15 15 14 13 12 11 10 9 8 7 4 3 2 1 0 1 1 3 4 4 5 7 7 7 8 8 6 5 4 4 5 5 5 4 4 4 5 5 5 4 5 5 6 7 7 6 5 5
23 23 23 23 24 25 27 27 28 28 28 27 25 25 24 24 24 24 24 23 23 21 20 20 20 20 19 18 18 18 18 18 18 19 19 19 19 18 17 17 17 17 16 16 15 14 13 12 11 10 8 7 6 5 4 3 2 1 1 2 3 4 4 5 6 5 5 4 4 5 5 5 4 4 4 3 3 3 3 3 3 4 5 6 8 9 8 9
23 23 23 23 23 24 26 27 28 29 29 28 27 26 26 25 25 25 25 24 24 23 22 22 22 22 21 20 20 20 19 20 19 20 20 20 20 20 19 18 18 18 18 18 17 17 16 15 14 13 11 10 10 9 8 7 6 4 3 2 1 1 1 2 2 2 2 2 2 3 4 4 4 4 3 4 4 3 3 3 4 5 4 5 7 10 10 11
24 23 23 23 23 24 25 27 28 29 30 30 29 28 28 27 26 26 26 25 24 24 23 23 23 24 23 21 21 21 21 21 21 21 22 22 22 21 20 20 20 20 20 20 19 19 18 18 17 16 14 12 13 12 11 10 9 9 8 6 4 3 3 3 2 2 2 1 1 1 2 2 1 2 2 3 6 7 6 5 6 7 8 8 9 11 10 11
24 24 24 24 24 24 25 26 28 29 30 31 31 30 30 29 28 28 27 27 26 25 24 24 25 25 24 23 23 23 22 22 22 23 23 24 24 23 22 21 21 21 21 21 21 21 20 20 19 18 17 15 15 15 14 13 12 12 12 10 9 8 7 7 6 6 5 5 3 2 2 3 4 3 1 2 4 8 9 10 9 9 11 12 13 14 13 13
25 25 25 25 25 25 25 26 27 29 30 31 31 31 31 31 31 30 30 29 28 27 27 26 26 27 26 25 25 25 24 24 24 24 25 25 25 25 24 23 23 23 22 22 22 22 22 22 21 21 20 18 17 17 17 17 15 15 15 14 13 12 12 12 11 11 10 9 7 6 5 5 5 7 6 4 4 7 10 12 13 12 11 11 13 15 16 16
26 26 26 26 26 26 26 26 27 28 30 31 31 32 32 32 32 32 32 32 31 30 29 29 29 29 28 27 27 27 26 26 25 26 26 26 26 26 26 25 25 24 24 23 23 23 23 23 23 23 22 21 20 20 21 20 18 17 17 17 17 16 16 16 16 15 14 13 12 10 10 9 7 8 11 10 8 9 12 13 15 14 12 11 14 16 16 16
28 27 27 27 27 27 27 27 28 29 29 30 31 32 32 33 33 33 33 33 33 33 32 32 31 31 31 30 28 28 28 28 28 27 27 27 28 28 28 27 27 26 25 25 25 25 25 25 25 24 24 24 23 23 24 23 21 21 21 20 20 19 19 19 19 19 18 17 16 15 14 15 12 10 12 14 13 12 13 15 17 16 14 15 17 19 18 17
30 29 28 28 28 28 28 28 29 29 29 30 31 32 32 33 33 33 34 34 34 34 34 34 34 33 32 32 31 30 30 30 30 29 29 29 29 29 29 29 29 28 27 27 26 26 26 26 25 25 26 27 26 26 26 25 24 24 24 24 23 22 22 21 23 24 22 20 20 19 18 19 20 16 14 15 15 15 15 17 20 20 19 20 22 22 21 19
31 31 30 29 29 28 29 29 29 29 30 31 32 32 33 33 34 34 34 34 35 35 35 35 34 34 34 33 33 32 32 33 33 31 31 31 31 31 31 30 30 30 29 28 28 29 29 28 27 28 28 29 29 29 28 26 26 27 27 27 26 26 26 26 27 28 26 24 24 23 21 22 24 23 20 17 17 16 17 20 23 23 23 24 26 26 24 22
32 32 32 31 30 29 30 30 29 30 30 31 32 33 34 34 35 35 35 35 36 36 35 35 35 35 35 35 35 34 34 35 34 33 33 33 33 33 32 32 32 32 31 30 31 32 32 31 30 30 29 31 32 31 30 27 28 30 30 30 30 30 31 30 30 30 29 29 29 28 25 24 26 28 26 23 21 20 20 22 26 26 26 27 29 30 28 26
32 32 33 33 32 31 31 31 30 30 31 31 32 33 34 35 36 36 36 37 37 37 36 35 35 36 36 37 37 36 37 37 36 35 35 36 36 35 34 34 34 33 32 32 33 35 35 33 32 32 32 33 35 33 31 29 31 34 33 33 33 33 33 33 33 33 32 32 31 32 31 27 26 29 30 28 27 26 25 25 26 28 31 31 32 33 33 31
31 32 33 33 33 33 33 32 32 31 31 32 33 33 34 35 36 37 37 38 39 38 36 36 36 37 38 38 37 37 38 39 38 38 38 39 38 37 37 36 36 35 34 34 36 36 36 36 34 34 35 35 37 37 34 33 35 37 37 36 36 35 35 36 36 35 35 33 32 35 36 31 28 31 33 32 31 31 30 29 28 30 33 35 35 36 37 36
31 31 32 33 33 34 34 34 34 33 33 33 33 34 35 35 36 37 37 39 40 39 38 38 37 38 40 39 38 39 40 40 40 41 42 41 40 39 39 39 38 37 36 36 38 38 37 37 36 36 37 37 39 41 39 37 38 39 40 39 39 37 38 39 39 38 37 35 34 38 40 35 31 34 37 37 35 35 34 33 32 32 34 36 38 39 38 38
31 31 32 32 33 33 34 34 35 35 35 35 35 35 35 36 36 36 37 38 39 39 39 39 39 40 42 42 41 41 42 41 40 42 44 43 42 42 42 42 41 41 40 39 40 40 39 38 38 38 39 40 41 43 43 42 40 41 42 42 42 42 42 41 42 41 39 38 38 41 42 38 34 37 42 42 39 39 39 37 36 36 35 36 38 38 39 40
31 31 32 32 32 33 34 34 35 35 36 37 37 37 37 37 37 36 36 37 37 38 39 40 41 43 44 45 45 44 43 43 41 42 45 45 44 44 44 45 44 44 44 42 41 42 42 41 40 40 40 41 43 44 45 45 45 44 45 45 46 46 46 45 45 44 41 41 42 44 44 42 38 39 45 45 43 44 44 42 41 39 38 39 38 39 41 44
32 32 33 33 33 33 34 34 35 35 36 37 37 38 38 39 37 36 36 37 37 38 40 42 43 44 46 47 46 45 44 44 42 43 45 46 46 47 47 47 46 47 47 45 43 42 43 44 43 43 43 43 44 46 47 47 48 48 49 48 49 50 49 48 49 47 44 44 45 46 46 44 43 44 47 48 47 47 47 47 46 44 43 43 43 43 44 45
33 34 34 34 34 35 35 35 35 35 36 37 37 38 39 38 37 37 39 40 40 41 43 43 42 45 47 46 45 44 45 45 44 43 45 46 47 49 50 50 49 48 48 47 45 43 44 45 46 46 47 46 47 48 48 49 51 52 52 52 52 53 52 52 52 51 48 47 48 48 47 45 46 49 50 51 51 51 50 49 48 48 48 48 48 47 46 47
35 35 35 36 36 36 36 36 36 36 37 37 38 38 38 36 35 38 40 41 43 44 46 45 43 45 47 46 44 43 45 45 44 44 46 47 48 49 51 53 52 50 48 47 46 44 46 48 48 49 50 49 49 49 48 50 54 55 56 57 56 56 54 54 54 53 51 49 49 50 50 49 50 52 54 55 56 56 55 52 50 50 52 53 52 50 49 49
38 37 37 38 38 37 37 37 36 37 37 38 38 38 37 36 36 38 40 42 44 46 48 47 44 46 47 46 44 43 45 46 45 46 48 48 49 51 52 55 54 50 47 48 47 46 48 50 50 51 52 51 51 51 51 53 56 57 58 60 61 60 57 56 56 55 54 52 50 52 53 53 54 55 57 60 60 61 61 59 57 56 56 57 56 54 52 51
40 40 40 40 40 40 39 38 38 39 39 39 39 37 37 37 37 38 41 43 45 46 48 47 45 46 47 47 46 46 47 48 47 49 50 50 52 54 54 56 54 49 48 48 48 47 47 49 49 50 52 53 52 53 54 55 56 57 59 61 62 62 60 59 57 56 57 55 51 52 53 54 56 56 58 61 62 63 65 65 65 64 63 62 61 59 57 55
41 41 41 41 42 42 42 41 41 41 41 41 41 39 39 39 39 41 43 45 46 46 47 48 47 46 47 47 47 48 49 50 50 51 52 52 54 55 55 55 53 49 48 49 49 48 47 48 49 49 51 53 53 54 56 57 57 58 60 61 60 61 61 62 60 59 60 57 52 51 53 55 57 58 61 63 62 64 67 67 67 67 67 66 64 61 58 56
41 42 42 42 42 43 43 44 44 44 44 44 43 42 43 44 43 44 47 48 48 48 48 49 48 48 48 49 48 49 50 51 52 53 53 55 57 57 56 56 54 51 50 49 50 50 48 48 50 50 51 53 54 55 57 60 59 59 61 61 60 60 60 61 62 62 62 60 55 54 55 56 58 60 62 63 63 66 69 69 67 67 67 67 64 61 57 54
44 44 44 43 44 45 45 46 46 46 47 47 47 46 46 47 47 48 50 50 50 50 50 50 50 50 51 51 50 50 51 52 53 54 55 56 58 58 57 56 56 54 53 52 52 53 52 51 50 51 53 55 57 58 59 61 62 62 62 63 64 62 61 61 62 63 64 62 59 57 57 58 60 62 64 65 67 69 70 70 69 68 69 69 68 66 63 59
46 47 47 46 47 48 48 48 47 48 49 49 48 47 47 47 47 48 49 49 50 50 50 50 50 50 50 50 50 51 52 53 54 55 56 58 59 58 57 56 56 56 56 55 55 56 55 53 51 52 54 56 59 61 62 62 63 64 64 66 66 64 63 63 63 65 66 65 63 60 58 58 62 64 67 70 71 72 72 72 73 72 72 73 72 71 68 65
44 45 46 46 46 47 47 46 46 46 46 47 46 46 46 45 45 45 45 46 47 47 48 48 47 47 47 47 48 49 50 51 54 56 57 58 59 58 57 55 55 56 57 57 57 57 56 55 54 54 55 56 59 62 65 65 65 66 67 67 68 67 67 67 66 67 69 68 67 66 60 57 61 66 69 72 73 73 74 76 76 76 77 76 75 73 71 69
42 43 45 45 44 44 45 44 43 43 43 44 45 45 46 45 44 43 43 44 45 47 48 47 46 45 45 45 46 47 47 48 51 52 54 55 57 56 55 54 54 55 56 57 57 56 56 56 56 57 57 57 59 62 65 67 67 68 68 68 69 70 71 72 70 70 72 71 72 72 66 59 61 66 69 72 73 73 76 78 78 77 78 77 75 74 72 70
43 43 46 47 45 45 45 44 43 42 43 44 46 47 47 46 45 43 43 44 45 47 48 47 46 45 44 44 46 47 47 47 48 49 50 52 54 53 52 51 51 53 54 55 55 54 54 55 55 55 55 56 57 59 61 63 64 65 65 66 67 68 69 71 71 71 71 70 71 74 69 60 60 63 66 68 71 72 74 77 78 78 77 75 73 71 70 69
47 47 49 50 48 47 47 47 46 45 45 46 48 49 49 48 47 46 45 46 47 47 49 49 48 46 46 46 47 48 48 48 48 49 50 52 53 54 52 50 51 52 53 54 54 53 54 54 52 51 51 52 53 56 57 58 59 60 60 61 63 64 67 69 69 70 69 67 69 72 68 61 59 61 62 65 68 70 72 75 78 80 79 77 74 72 71 71
50 51 53 53 52 51 51 51 50 49 49 50 52 53 52 51 50 49 49 49 49 49 50 51 50 49 49 49 49 49 49 49 49 51 52 53 54 55 55 55 55 56 56 56 56 55 56 55 53 53 52 52 53 55 56 57 58 59 59 60 62 64 67 69 69 70 70 70 70 70 69 65 62 62 65 67 69 71 72 74 77 80 82 81 80 79 76 75
53 54 56 56 55 54 54 54 54 53 53 54 55 56 56 56 55 54 53 53 53 52 52 53 52 52 52 52 52 52 51 51 52 53 54 55 56 56 57 59 61 61 60 59 59 59 59 57 57 56 55 55 56 57 58 57 58 59 59 60 62 65 69 72 72 72 74 76 73 71 74 74 68 65 68 72 74 75 75 75 77 79 82 83 84 84 84 83
56 57 59 59 58 57 58 58 57 56 56 57 58 59 60 60 60 59 58 58 57 57 56 56 56 55 56 56 57 56 55 56 56 56 56 57 58 59 60 62 65 66 65 64 64 64 63 62 61 60 60 60 60 61 62 61 60 59 59 60 62 65 69 73 75 77 79 82 78 73 78 81 75 71 72 76 78 79 79 79 81 82 83 85 85 86 87 88
60 60 61 63 63 61 61 61 61 60 60 60 61 62 63 63 63 63 62 61 61 61 60 59 58 58 59 60 62 61 61 61 61 60 60 60 60 61 62 64 67 68 69 70 70 69 68 67 66 65 64 64 65 67 67 67 65 63 61 61 64 67 69 71 76 79 83 86 85 81 83 84 80 77 78 80 83 84 84 84 84 84 85 86 86 86 87 89
63 63 64 65 67 67 65 64 64 63 64 64 64 65 66 66 66 66 65 65 65 64 62 61 62 62 62 64 66 67 66 64 64 63 63 63 63 63 64 66 68 70 72 74 74 74 73 72 71 71 69 67 68 71 73 73 71 67 64 65 68 70 70 73 77 80 83 87 88 88 88 86 83 83 84 85 86 87 88 88 88 87 87 87 87 87 88 89
67 67 67 67 69 70 70 69 68 67 67 67 67 68 68 68 69 69 69 69 68 68 66 65 66 66 66 68 69 69 68 66 66 66 66 66 67 67 68 69 70 72 74 75 77 79 79 78 77 78 75 70 70 75 78 78 77 71 66 68 72 73 73 76 80 82 85 88 89 89 89 87 86 87 89 90 91 92 92 93 92 91 90 90 89 89 89 90
71 71 70 70 71 73 73 74 73 71 71 71 70 70 70 71 71 72 73 73 71 70 70 69 69 70 70 71 71 70 68 67 67 67 68 70 71 71 71 70 71 73 74 76 79 80 82 83 83 84 82 75 73 79 82 83 81 74 69 72 77 79 79 80 83 86 89 91 90 90 91 90 88 89 90 93 95 96 97 97 96 96 95 94 92 91 91 91
75 75 74 74 74 75 76 76 76 76 76 76 74 73 73 74 74 74 75 76 75 73 73 72 73 74 74 73 72 70 69 68 69 70 71 72 72 72 72 71 72 73 75 77 80 81 83 85 85 88 88 82 79 83 86 87 84 76 74 80 83 84 84 84 86 89 92 93 94 94 94 93 92 92 92 95 97 98 98 99 98 98 98 97 96 95 94 94
Wind_Direction
190 188 187 184 181 181 182 182 182 181 180 178 176 177 179 180 179 177 175 170 166 165 167 169 162 156 150 146 142 134 125 114 103 94 87 82 78 75 72 70 69 70 70 70 71 74 76 77 77 76 76 77 78 78 78 80 79 77 80 79 73 72 73 76 79 82 85 87 85 81 78 80 82 82 83 83 80 78 76 76 75 73 71 71 71 70 80 101
189 188 188 185 183 184 184 184 183 183 182 180 180 182 183 183 182 181 179 174 170 169 173 175 171 164 159 155 151 145 135 122 110 100 91 85 78 73 71 69 68 68 70 71 70 72 75 78 80 81 81 80 80 81 80 81 79 74 78 82 80 75 73 76 80 83 86 86 83 81 79 78 80 81 82 81 79 78 78 79 80 77 74 73 73 69 64 67
188 189 189 187 186 186 185 185 185 185 184 184 185 186 187 187 187 186 184 179 175 174 175 178 176 171 167 163 159 155 145 133 119 107 97 89 81 73 68 66 65 65 67 71 71 71 72 75 78 81 85 86 86 85 81 81 81 77 77 82 84 81 77 79 83 85 87 87 84 83 81 80 79 80 81 82 80 79 78 78 80 78 74 72 74 75 71 66
188 190 191 188 188 188 186 187 187 188 187 187 188 189 191 191 191 191 189 185 182 179 178 180 181 179 175 170 168 165 157 145 131 117 104 92 84 75 66 63 61 61 63 67 72 73 72 73 75 77 81 87 90 91 86 84 85 83 80 80 83 83 80 81 85 87 86 86 85 83 81 81 81 82 83 85 84 79 75 72 73 75 74 72 72 73 72 69
189 191 192 191 191 190 188 188 190 191 191 191 192 193 194 194 194 194 194 190 187 186 184 185 186 184 183 177 176 176 169 157 145 131 114 99 87 77 67 60 56 56 58 62 67 74 76 76 75 75 75 79 86 91 91 91 93 91 86 85 85 84 82 82 85 87 87 86 85 83 81 81 82 81 80 81 80 77 74 72 70 73 76 76 74 74 74 71
191 192 194 193 193 192 190 191 193 194 195 195 195 196 198 198 198 198 197 194 191 192 192 193 191 190 189 185 184 184 179 171 162 150 130 113 94 80 69 59 53 52 53 58 63 70 77 79 79 76 74 75 79 84 86 91 98 98 95 91 86 85 86 85 85 85 87 89 88 86 85 84 83 80 76 74 74 73 72 71 70 70 73 75 76 76 77 76
193 194 196 196 196 195 193 193 196 198 198 199 198 199 201 201 201 201 199 198 197 199 199 199 198 196 194 192 192 192 188 184 180 172 157 136 110 88 71 57 51 50 50 53 58 64 72 79 82 81 79 78 79 81 82 85 92 97 99 97 85 81 86 88 86 85 86 90 92 91 89 86 84 81 76 73 71 70 69 71 71 71 72 75 78 81 83 83
195 196 198 199 199 198 196 197 199 201 202 202 201 201 203 204 204 204 203 202 202 204 206 206 205 201 199 197 198 199 197 194 194 194 186 170 145 108 76 54 44 48 50 52 55 59 66 73 79 84 84 83 83 84 86 85 87 92 96 96 85 77 84 87 85 86 87 90 93 94 93 90 88 85 80 76 73 72 71 73 74 75 76 77 77 81 86 87
198 199 201 201 201 200 199 200 202 204 205 205 205 204 205 206 207 207 206 207 208 209 212 212 209 205 203 202 201 204 205 203 204 208 208 204 195 170 118 35 27 37 47 52 54 57 63 69 73 79 82 84 87 87 87 86 88 92 93 94 91 82 84 83 80 84 87 88 90 92 92 91 90 88 85 78 74 76 77 78 76 73 73 74 73 77 86 91
200 201 202 202 203 203 203 203 205 207 208 207 207 207 207 208 209 209 210 212 213 214 217 216 213 209 207 206 204 206 210 211 212 216 220 221 222 220 220 267 336 5 29 46 54 57 60 67 71 74 77 79 84 87 87 87 89 92 93 93 94 91 92 82 74 80 85 86 88 89 87 85 82 81 79 73 68 69 72 76 76 70 63 65 68 70 79 91
202 204 204 204 204 205 205 206 208 210 211 210 209 209 209 209 210 211 214 217 218 219 222 221 218 214 211 210 208 209 213 217 218 222 227 229 231 235 239 253 281 311 339 18 42 52 56 62 71 75 76 77 81 86 88 90 92 95 96 95 90 89 94 90 81 83 84 82 82 85 87 85 80 76 75 74 70 63 62 67 71 69 63 67 72 67 65 73
205 206 206 206 206 206 207 209 210 211 213 212 210 211 212 211 211 212 216 220 223 225 226 226 224 222 219 217 216 214 216 222 225 227 231 235 236 240 245 252 263 277 293 318 357 31 44 51 62 71 74 74 77 82 87 92 93 93 93 91 89 86 85 89 91 86 81 79 78 82 87 88 85 84 79 76 77 71 61 58 62 68 71 73 73 67 63 62
207 208 209 208 208 208 209 210 212 213 214 213 212 212 214 214 212 215 219 223 226 228 230 231 231 230 229 228 226 224 222 225 230 232 236 239 240 242 246 251 257 264 274 285 300 321 356 26 46 61 68 69 74 78 84 91 90 85 84 84 87 88 85 83 84 80 76 73 74 79 85 89 91 91 84 76 81 85 70 55 53 62 70 69 65 59 56 50
209 211 211 211 210 210 211 212 213 215 215 215 213 214 217 217 215 217 221 226 229 231 234 236 237 238 239 238 236 234 231 231 234 237 240 243 244 245 247 251 255 259 266 273 279 283 287 292 311 52 68 65 71 74 79 88 86 81 83 83 81 84 86 84 83 83 81 73 65 68 74 81 87 89 86 79 79 79 71 60 49 48 55 58 60 60 53 36
213 214 214 214 213 212 212 213 214 216 217 217 215 216 218 220 218 220 223 228 231 234 237 240 242 243 244 243 242 240 238 237 238 240 242 246 248 248 249 251 254 258 262 266 269 271 274 274 272 265 238 88 75 79 78 80 79 77 83 85 81 81 80 76 75 77 80 77 66 61 61 63 65 68 70 68 65 60 54 47 34 25 25 26 31 42 43 22
218 218 218 217 216 215 214 215 216 217 218 218 218 217 219 221 222 222 225 228 232 235 238 240 243 244 245 245 245 244 242 239 239 241 243 247 250 251 251 253 255 257 260 263 265 267 268 269 270 268 261 254 255 258 299 52 62 65 71 73 77 81 79 73 73 76 81 85 83 75 65 59 52 38 24 27 36 37 29 22 14 2 355 351 347 349 352 335
221 223 223 221 219 218 217 217 218 219 219 219 220 220 220 222 223 224 226 229 231 234 236 239 242 244 245 245 246 247 245 243 241 241 243 246 250 252 253 254 256 257 260 261 262 264 265 267 269 268 266 262 261 261 264 269 284 331 32 48 57 66 69 70 72 79 85 83 82 82 77 66 50 38 17 358 11 22 7 350 337 329 330 328 322 321 323 312
223 225 227 226 224 222 220 220 220 222 222 221 221 222 223 224 225 226 228 230 233 234 236 238 241 243 245 245 247 247 247 246 244 242 242 245 248 252 253 255 256 258 259 261 262 263 265 267 268 268 269 270 269 269 271 274 279 281 282 294 10 42 35 56 65 67 68 56 50 63 76 73 57 50 25 345 331 319 315 325 320 308 299 304 306 308 311 305
225 227 229 230 229 227 225 223 222 224 225 225 224 223 224 226 227 228 230 231 233 235 236 239 241 244 244 245 247 247 247 246 245 243 242 244 247 250 253 255 257 258 259 261 262 264 265 266 268 270 271 271 272 274 276 278 281 284 283 285 285 281 279 277 272 270 271 278 324 355 17 33 39 75 78 336 320 311 306 306 310 311 309 310 306 304 307 304
226 228 229 231 232 231 230 227 225 225 227 228 227 226 226 227 228 229 231 232 234 235 236 239 241 244 245 244 246 247 247 246 244 243 243 243 245 249 252 255 257 258 260 261 262 264 265 266 268 270 271 269 271 275 276 276 277 281 284 287 288 285 282 279 276 273 268 262 256 260 278 295 301 299 194 180 297 305 304 302 305 312 316 319 315 308 307 305
228 229 230 232 233 233 233 232 229 227 227 229 230 229 228 228 229 231 232 234 235 236 237 238 241 244 245 243 244 245 246 246 245 243 243 243 245 248 251 254 257 259 261 261 261 264 265 267 268 268 269 268 268 269 271 272 273 276 280 283 283 284 285 284 281 278 274 269 265 258 254 259 276 287 276 226 236 276 285 291 298 306 312 317 316 310 307 305
229 231 231 232 234 235 235 234 233 231 229 230 231 232 231 230 231 232 233 235 236 237 237 239 240 243 244 244 243 244 245 245 245 245 244 244 245 247 250 252 254 257 260 260 261 263 264 265 266 268 270 269 268 267 268 272 275 276 277 278 280 282 282 283 284 283 279 275 274 272 268 261 251 263 276 272 260 270 283 289 294 299 301 305 310 308 302 298
230 232 232 233 234 235 236 235 235 234 233 232 232 233 234 233 233 233 234 236 237 238 238 239 240 241 244 245 245 245 245 245 244 245 245 245 246 247 248 250 253 254 256 259 261 262 263 264 268 271 272 271 270 270 271 274 277 277 277 278 278 278 279 283 283 278 275 276 278 279 278 276 266 256 267 277 277 280 288 292 292 292 292 295 300 300 296 293
232 233 234 234 234 235 236 236 236 235 235 235 234 235 236 236 235 235 235 236 237 239 239 239 240 242 244 246 246 246 246 245 244 245 245 246 245 246 247 249 250 252 254 257 259 261 262 264 267 268 268 270 271 271 272 275 277 277 277 277 276 276 277 276 273 272 274 277 279 279 280 282 280 273 269 273 279 284 288 290 288 289 290 291 292 291 288 290
235 235 236 236 237 237 237 238 237 237 237 237 236 237 237 238 238 237 237 237 238 239 240 241 242 243 244 246 247 248 248 247 247 246 245 246 245 246 247 248 249 250 252 254 256 258 260 261 262 262 263 267 269 270 271 274 276 275 275 275 274 274 271 268 269 274 278 279 278 278 281 285 285 283 280 276 277 281 285 285 284 286 290 292 291 287 285 291
237 238 239 239 239 240 240 240 239 239 239 239 239 239 239 239 240 240 240 240 240 240 241 242 243 243 243 244 246 247 248 249 249 248 246 246 246 246 246 246 248 249 251 251 252 254 257 259 260 261 263 265 265 267 269 272 272 271 272 273 272 271 271 271 273 275 278 278 279 280 281 283 286 287 286 284 282 280 280 282 285 288 290 290 289 288 289 294
240 241 242 242 242 242 243 243 243 242 241 241 241 241 241 241 241 242 242 243 243 242 242 243 244 245 245 244 245 246 247 249 250 250 248 247 246 247 247 247 247 248 249 250 251 252 255 257 259 261 263 263 265 268 269 270 269 268 269 269 269 270 272 274 275 276 277 279 282 284 281 282 285 286 287 287 287 285 283 282 285 288 287 287 288 290 292 294
241 242 243 244 244 245 245 245 245 245 245 244 244 243 243 243 243 243 244 245 245 245 245 245 246 248 248 247 246 246 246 248 249 249 249 248 248 249 248 249 249 249 249 249 250 251 253 256 258 260 261 263 266 268 268 266 265 266 267 267 269 271 271 273 275 276 277 280 283 282 281 284 285 284 285 285 285 284 284 283 282 284 286 288 289 290 292 293
243 243 244 244 245 246 246 247 247 247 247 247 247 246 246 246 245 245 245 247 248 248 248 248 248 249 251 250 249 248 247 247 248 249 249 249 250 251 251 251 251 251 250 250 251 252 253 255 257 258 260 261 262 264 265 263 262 264 267 268 270 270 270 271 273 273 275 278 279 278 280 284 286 285 284 282 282 281 281 281 281 282 284 287 289 291 293 294
248 247 246 245 246 246 246 247 247 248 248 248 248 248 248 248 248 248 248 249 251 251 251 251 250 250 251 251 250 249 248 248 248 250 251 251 251 251 251 252 253 253 252 251 252 254 255 256 257 258 258 259 260 262 264 265 265 265 266 268 269 268 268 269 270 272 274 276 275 276 279 282 284 284 282 282 284 283 283 282 282 282 282 285 288 289 291 292
250 250 249 249 248 247 247 247 247 248 248 249 249 250 250 250 250 251 252 253 253 254 253 251 249 249 248 249 249 249 249 250 249 250 253 253 253 252 252 252 253 254 254 253 254 257 259 259 259 259 259 260 262 263 264 266 267 266 266 266 267 268 268 269 269 271 272 273 273 275 278 281 282 280 279 282 283 283 284 284 283 283 284 284 283 283 285 288
250 251 252 251 251 250 250 249 249 249 249 249 250 251 251 251 252 253 254 254 254 254 252 250 250 250 249 249 251 252 253 253 252 252 254 255 255 255 254 253 253 254 255 255 256 257 260 262 263 263 262 262 263 264 266 267 268 268 268 268 268 268 269 270 271 271 271 272 273 275 278 282 284 281 280 282 282 282 283 284 285 286 286 284 283 282 284 287
251 252 253 253 253 253 253 252 251 251 251 251 251 251 251 252 254 255 255 254 254 254 253 252 252 254 254 254 254 255 256 256 256 255 255 257 257 257 257 255 253 252 254 256 257 259 261 262 263 264 264 264 263 265 268 269 270 270 270 269 269 269 270 270 271 272 273 273 274 277 279 281 282 281 281 281 281 280 281 282 284 285 285 284 283 284 285 287
253 254 255 255 255 255 255 255 254 254 254 253 253 252 253 253 254 255 255 255 254 254 254 254 254 256 258 258 257 258 258 258 257 256 255 255 256 256 257 256 254 252 254 257 258 259 260 260 262 263 264 265 266 267 269 269 270 270 271 271 270 269 270 271 272 273 274 275 277 278 280 280 280 280 280 280 279 279 279 280 280 279 279 279 279 281 282 284
255 255 256 256 257 256 256 256 257 257 257 257 256 256 256 255 254 255 256 256 255 255 255 254 254 256 259 260 260 260 260 259 257 257 255 254 254 254 255 256 257 256 257 258 258 259 261 262 263 265 265 266 266 267 267 266 267 268 270 271 271 271 271 271 272 273 274 274 275 277 279 281 281 281 282 282 283 284 284 284 282 280 279 279 280 281 281 283
256 257 257 257 257 257 256 257 258 259 260 260 260 260 259 258 257 257 257 257 256 256 257 256 254 254 257 259 259 259 259 259 259 258 257 257 256 256 256 258 260 261 261 261 261 261 262 264 265 266 267 267 267 266 266 264 264 265 266 267 269 272 273 272 271 271 271 271 271 272 275 277 278 279 279 280 282 283 284 284 284 284 284 284 284 285 286 287
258 258 258 258 258 257 257 258 259 261 262 262 262 262 262 260 259 259 259 258 259 259 261 261 258 256 256 256 257 257 258 258 258 258 258 258 258 258 258 260 261 262 263 263 263 262 261 263 264 265 267 268 269 268 267 266 265 265 266 267 269 271 273 275 275 273 273 273 273 273 273 273 274 274 274 275 277 278 278 279 280 282 284 285 286 288 289 292
259 259 258 259 259 258 258 259 260 262 262 263 262 262 262 262 261 260 261 261 261 261 262 263 263 261 259 258 257 258 258 257 257 258 259 259 259 259 260 261 261 260 260 261 262 262 261 261 263 265 266 267 268 267 268 269 269 268 269 270 270 270 272 274 276 276 277 278 277 275 274 274 273 273 274 274 275 275 276 277 279 280 281 282 283 284 285 288
260 260 260 260 260 260 259 260 261 262 263 263 263 263 262 263 262 262 262 263 263 263 262 263 263 263 262 261 260 260 260 260 260 260 260 260 260 260 261 261 262 262 261 260 260 260 259 259 261 264 265 266 266 266 266 268 269 269 270 270 271 271 272 273 274 275 276 276 275 274 274 275 275 275 275 275 274 274 275 277 278 279 279 280 280 280 280 280
260 261 261 260 260 261 261 261 262 263 264 264 264 264 263 262 262 262 262 263 264 264 264 263 263 262 263 263 262 262 262 263 263 262 262 262 262 262 262 263 265 265 264 262 261 261 261 260 259 260 262 265 266 267 267 267 268 269 270 271 272 273 272 272 272 272 273 273 273 272 273 275 277 277 277 277 276 277 278 278 279 278 278 278 279 280 280 279
259 261 261 261 260 260 261 261 261 262 263 264 264 264 263 261 261 261 262 263 264 264 264 264 263 264 264 264 264 263 262 262 263 263 263 264 264 265 265 265 266 267 267 266 264 263 263 263 261 259 260 262 265 268 269 269 268 269 270 271 273 273 272 271 271 271 271 272 272 271 270 272 275 277 278 279 279 280 279 279 279 279 279 279 279 280 280 279
258 260 261 261 260 260 260 261 261 262 263 264 264 263 262 262 261 261 262 264 264 264 264 264 264 265 265 266 266 265 264 263 264 265 266 266 267 267 267 267 267 267 268 268 267 266 265 264 262 261 260 260 263 266 269 271 272 272 272 273 273 273 274 273 273 272 272 273 274 273 271 269 270 272 274 277 278 279 279 278 278 277 277 278 279 279 279 279
259 260 261 262 262 262 262 261 262 262 263 264 264 263 263 263 263 261 261 261 263 264 266 266 266 265 266 266 266 266 266 266 267 268 269 269 269 268 268 268 267 267 268 268 268 267 266 265 264 264 263 262 262 263 265 269 272 274 275 276 276 277 276 276 275 274 274 275 276 275 275 273 271 271 271 273 275 277 278 278 278 278 277 277 278 278 279 279
262 262 262 262 262 263 264 263 263 262 262 263 264 264 264 264 264 264 263 262 262 264 266 267 267 267 267 265 265 267 268 269 269 270 270 270 271 271 270 269 267 266 266 266 265 266 265 265 265 265 265 264 264 264 264 265 267 270 273 276 277 278 278 278 278 277 277 276 275 276 277 276 274 274 273 273 273 274 276 278 280 281 282 282 282 281 281 281
262 263 263 263 263 263 263 264 264 263 263 263 264 265 265 265 265 264 264 264 264 264 265 267 268 269 268 268 268 268 269 270 270 271 271 271 272 273 274 272 269 267 265 265 265 265 265 266 265 264 263 263 263 264 265 266 267 269 270 273 275 278 279 279 280 280 280 279 277 278 279 277 275 276 277 276 275 276 277 279 281 283 285 286 286 286 285 284
261 262 263 264 264 264 263 263 263 263 264 265 265 266 266 266 265 264 263 264 264 264 265 266 268 268 269 270 270 269 270 270 269 270 271 272 273 274 274 274 273 271 270 270 270 268 268 267 267 266 265 264 264 264 265 266 268 269 271 273 275 277 279 280 280 281 280 279 278 280 281 278 276 276 277 278 278 278 279 280 280 282 283 285 286 287 287 287
260 261 262 263 263 264 264 264 264 263 263 264 265 266 266 266 266 265 264 264 264 264 264 265 266 267 269 270 270 269 269 268 267 267 268 270 272 273 274 275 275 275 274 273 272 271 270 269 269 269 269 268 267 267 266 266 266 267 270 272 275 276 278 280 282 282 281 279 279 279 279 279 279 279 279 279 280 280 280 280 281 281 282 283 285 286 287 287
260 261 262 263 264 263 263 263 264 264 264 263 264 265 265 266 266 266 266 266 265 265 265 266 266 267 268 269 268 267 266 266 266 267 267 268 269 271 273 274 276 277 277 275 274 273 272 272 271 270 269 270 270 269 269 268 267 267 268 270 271 272 274 277 279 280 281 281 281 280 279 280 283 283 282 281 281 281 281 281 281 282 283 284 285 286 286 286
260 261 261 263 264 264 264 263 263 263 263 264 264 264 265 266 266 267 267 267 267 267 266 266 267 266 266 266 266 266 265 266 267 267 268 268 268 269 270 271 273 274 275 276 277 276 275 274 273 271 270 270 271 271 271 270 269 269 270 271 270 271 272 273 274 275 277 279 281 282 283 284 285 285 283 283 283 283 283 282 283 283 283 284 285 285 285 285
260 261 261 262 263 264 265 265 264 263 263 263 263 264 265 266 267 267 267 266 266 266 266 265 265 264 264 264 265 266 267 267 268 269 270 269 268 268 267 268 270 272 274 276 277 278 277 276 274 273 271 270 271 272 272 271 271 271 272 272 272 272 271 271 272 274 275 276 278 280 282 283 284 285 285 285 285 284 284 284 284 284 284 284 284 284 284 284
260 261 261 261 262 263 264 265 265 265 264 263 263 264 264 265 265 266 267 266 266 265 265 265 264 264 263 263 264 265 267 268 270 270 270 269 269 268 268 269 270 272 274 275 276 277 277 277 277 276 274 273 272 272 272 273 273 274 275 274 273 272 272 272 274 275 275 276 277 278 279 280 281 282 284 285 285 285 285 286 286 286 286 285 285 284 284 283
260 260 260 261 261 262 263 264 265 265 265 265 265 264 264 263 263 264 265 267 267 266 266 266 265 265 264 263 264 264 265 266 267 267 268 268 269 270 270 271 271 271 272 273 274 275 276 276 277 276 276 275 274 274 274 274 274 276 276 274 272 273 274 274 275 275 275 276 277 278 279 280 280 281 281 282 282 283 285 286 286 287 286 286 285 285 284 284
Height
10792 10793 10795 10797 10799 10801 10802 10804 10805 10807 10808 10809 10811 10812 10813 10815 10816 10817 10818 10819 10820 10820 10821 10821 10822 10822 10823 10824 10824 10824 10824 10824 10824 10824 10823 10823 10822 10822 10821 10820 10819 10818 10817 10816 10815 10814 10813 10811 10810 10809 10808 10806 10805 10804 10804 10800 10800 10800 10797 10797 10799 10797 10795 10793 10789 10785 10783 10783 10783 10784 10784 10783 10783 10784 10786 10786 10785 10786 10788 10789 10789 10790 10791 10791 10791 10792 10792 10792
10791 10793 10794 10796 10798 10800 10802 10803 10805 10806 10808 10809 10810 10811 10813 10814 10816 10817 10818 10819 10820 10820 10821 10821 10822 10823 10823 10824 10824 10824 10825 10824 10824 10824 10824 10823 10822 10822 10822 10821 10820 10819 10819 10817 10816 10815 10814 10813 10812 10811 10809 10809 10807 10806 10806 10802 10801 10803 10801 10801 10801 10800 10798 10795 10792 10789 10788 10787 10787 10787 10788 10788 10786 10787 10788 10788 10788 10789 10791 10792 10791 10792 10793 10793 10793 10793 10794 10794
10791 10792 10794 10796 10798 10800 10801 10803 10804 10806 10807 10809 10810 10811 10812 10814 10815 10817 10818 10819 10819 10820 10821 10821 10822 10823 10823 10824 10824 10824 10825 10825 10824 10824 10824 10823 10823 10822 10822 10822 10821 10820 10820 10819 10818 10817 10816 10814 10813 10812 10811 10810 10808 10808 10808 10803 10802 10806 10806 10805 10803 10801 10800 10798 10795 10793 10792 10790 10790 10790 10791 10790 10789 10790 10790 10790 10792 10793 10794 10794 10793 10793 10795 10795 10795 10795 10795 10796
10790 10792 10794 10796 10797 10799 10801 10802 10804 10805 10807 10808 10809 10811 10812 10813 10815 10816 10817 10818 10819 10820 10821 10821 10822 10822 10823 10824 10824 10824 10825 10825 10824 10824 10824 10824 10823 10823 10822 10822 10822 10821 10820 10820 10819 10818 10817 10816 10815 10814 10813 10812 10809 10808 10808 10805 10805 10808 10809 10809 10806 10803 10802 10800 10798 10796 10795 10793 10793 10792 10793 10792 10792 10793 10793 10793 10795 10795 10796 10796 10796 10795 10795 10796 10797 10797 10797 10797
10790 10792 10794 10795 10797 10799 10800 10802 10803 10805 10806 10807 10809 10810 10811 10813 10814 10816 10817 10818 10819 10820 10820 10821 10822 10822 10823 10823 10824 10824 10824 10824 10824 10824 10824 10824 10823 10823 10823 10822 10822 10822 10821 10820 10820 10819 10818 10817 10816 10815 10814 10813 10811 10809 10808 10806 10807 10810 10811 10811 10808 10804 10804 10803 10801 10799 10797 10796 10795 10794 10795 10795 10795 10796 10796 10797 10797 10797 10797 10797 10797 10797 10796 10796 10797 10798 10798 10798
10790 10791 10793 10795 10796 10798 10800 10801 10803 10804 10806 10807 10808 10809 10811 10812 10813 10815 10816 10818 10819 10819 10820 10821 10821 10822 10823 10823 10824 10824 10824 10824 10824 10824 10824 10824 10824 10823 10823 10822 10822 10822 10822 10821 10821 10820 10819 10819 10817 10816 10815 10814 10812 10811 10810 10809 10808 10810 10812 10813 10810 10807 10806 10805 10804 10802 10800 10799 10798 10797 10797 10797 10797 10798 10799 10799 10799 10799 10799 10799 10799 10799 10798 10798 10798 10798 10799 10799
10789 10791 10793 10794 10796 10797 10799 10801 10802 10803 10805 10806 10808 10809 10810 10812 10813 10815 10816 10817 10818 10819 10819 10820 10821 10822 10822 10823 10823 10823 10824 10824 10824 10824 10824 10824 10824 10823 10823 10823 10823 10822 10822 10821 10821 10821 10820 10819 10818 10817 10816 10815 10813 10812 10813 10812 10810 10811 10813 10814 10812 10809 10808 10807 10805 10804 10803 10802 10801 10800 10799 10799 10799 10800 10800 10800 10800 10800 10800 10801 10801 10801 10800 10800 10800 10799 10800 10801
10789 10790 10792 10794 10795 10797 10798 10800 10801 10803 10804 10805 10807 10808 10810 10811 10813 10814 10816 10817 10817 10818 10819 10819 10820 10821 10822 10822 10823 10823 10823 10823 10823 10824 10824 10824 10824 10824 10823 10823 10823 10823 10822 10822 10821 10821 10821 10820 10819 10818 10818 10816 10814 10813 10814 10813 10812 10813 10814 10814 10813 10811 10810 10809 10807 10805 10805 10804 10803 10802 10801 10801 10801 10801 10801 10801 10801 10801 10802 10802 10802 10802 10802 10802 10802 10802 10801 10802
10788 10790 10791 10793 10795 10796 10798 10799 10801 10802 10803 10805 10806 10808 10809 10811 10812 10814 10815 10816 10817 10817 10818 10818 10819 10820 10821 10821 10822 10822 10822 10823 10823 10823 10823 10824 10824 10824 10823 10823 10823 10823 10822 10822 10822 10821 10821 10821 10820 10819 10819 10817 10816 10815 10815 10814 10813 10814 10815 10814 10813 10812 10811 10810 10809 10807 10806 10806 10805 10804 10804 10803 10803 10803 10803 10802 10802 10802 10803 10803 10804 10804 10803 10803 10804 10805 10803 10803
10787 10789 10790 10792 10794 10795 10797 10798 10800 10801 10803 10804 10806 10807 10809 10810 10812 10813 10814 10815 10816 10816 10817 10817 10818 10819 10820 10820 10821 10821 10822 10822 10822 10822 10822 10823 10823 10823 10823 10823 10823 10823 10823 10822 10822 10822 10821 10821 10821 10820 10820 10819 10817 10816 10816 10816 10815 10815 10815 10815 10814 10813 10812 10811 10810 10809 10808 10807 10807 10806 10806 10805 10804 10804 10804 10804 10803 10803 10803 10804 10804 10804 10804 10804 10805 10807 10806 10805
10786 10787 10789 10791 10792 10794 10796 10797 10799 10800 10802 10803 10805 10806 10808 10809 10811 10812 10813 10814 10815 10815 10816 10816 10817 10818 10818 10819 10820 10820 10821 10821 10821 10821 10822 10822 10822 10823 10823 10823 10823 10823 10823 10822 10822 10822 10822 10821 10821 10820 10820 10819 10818 10817 10816 10817 10817 10817 10817 10816 10814 10813 10813 10812 10811 10810 10809 10808 10807 10807 10807 10807 10806 10805 10805 10805 10804 10804 10804 10804 10804 10804 10805 10805 10806 10807 10808 10806
10784 10786 10788 10789 10791 10793 10795 10796 10798 10799 10801 10802 10804 10805 10807 10808 10810 10811 10812 10813 10813 10814 10814 10815 10816 10816 10817 10818 10818 10819 10820 10820 10820 10820 10820 10821 10821 10822 10822 10822 10822 10822 10822 10822 10822 10822 10822 10822 10821 10821 10820 10820 10818 10817 10817 10817 10817 10818 10817 10816 10815 10814 10814 10813 10812 10811 10809 10809 10808 10808 10808 10808 10807 10807 10806 10806 10805 10805 10804 10804 10804 10805 10806 10806 10807 10807 10807 10807
10783 10784 10786 10788 10789 10791 10793 10795 10797 10798 10800 10801 10803 10804 10805 10807 10808 10810 10810 10811 10812 10812 10813 10814 10814 10815 10816 10816 10817 10818 10818 10819 10819 10819 10819 10819 10820 10820 10821 10821 10822 10822 10822 10822 10822 10822 10822 10822 10821 10821 10820 10820 10819 10818 10818 10818 10818 10817 10817 10816 10815 10815 10814 10814 10813 10811 10810 10810 10809 10809 10809 10808 10808 10808 10807 10807 10806 10805 10805 10805 10805 10805 10806 10806 10807 10807 10807 10807
10782 10783 10784 10786 10788 10790 10791 10793 10795 10797 10798 10800 10801 10803 10804 10805 10807 10808 10809 10809 10810 10811 10812 10812 10813 10813 10814 10815 10815 10816 10817 10817 10818 10818 10818 10818 10818 10819 10820 10820 10820 10821 10821 10821 10821 10821 10821 10821 10821 10820 10820 10819 10819 10819 10819 10819 10818 10817 10817 10816 10815 10815 10815 10815 10814 10812 10811 10811 10810 10809 10808 10808 10808 10808 10808 10807 10807 10806 10806 10805 10805 10805 10805 10805 10806 10806 10806 10806
10780 10782 10783 10785 10786 10788 10790 10791 10793 10795 10797 10798 10800 10801 10802 10804 10805 10806 10807 10808 10808 10809 10810 10811 10812 10812 10812 10813 10814 10814 10815 10816 10816 10816 10817 10817 10817 10818 10818 10818 10819 10819 10819 10820 10820 10820 10820 10820 10820 10820 10819 10819 10819 10819 10818 10818 10818 10817 10817 10816 10815 10815 10815 10815 10814 10813 10812 10812 10811 10809 10808 10807 10807 10808 10807 10807 10806 10806 10806 10805 10805 10804 10803 10804 10804 10805 10806 10805
10779 10780 10782 10783 10785 10786 10788 10789 10791 10792 10794 10796 10798 10799 10800 10802 10803 10804 10805 10806 10807 10808 10809 10810 10810 10810 10810 10811 10812 10812 10813 10814 10814 10814 10815 10815 10816 10816 10816 10816 10817 10817 10818 10818 10818 10818 10818 10818 10818 10818 10818 10818 10818 10818 10818 10817 10817 10816 10816 10815 10815 10814 10815 10814 10814 10813 10813 10813 10812 10810 10808 10807 10807 10807 10806 10806 10806 10805 10805 10805 10804 10803 10802 10802 10803 10804 10804 10804
10777 10779 10780 10781 10783 10784 10786 10787 10789 10790 10792 10794 10796 10797 10798 10799 10801 10802 10803 10804 10805 10806 10807 10807 10808 10808 10808 10809 10810 10810 10811 10812 10812 10813 10813 10813 10814 10814 10814 10815 10815 10815 10816 10816 10816 10816 10816 10816 10816 10816 10816 10817 10816 10816 10816 10816 10816 10816 10815 10815 10814 10814 10814 10814 10814 10814 10814 10814 10813 10811 10809 10808 10807 10806 10806 10805 10805 10805 10805 10805 10804 10803 10802 10802 10802 10802 10803 10802
10776 10777 10778 10779 10781 10782 10784 10785 10787 10788 10789 10791 10793 10795 10796 10797 10798 10799 10800 10801 10803 10804 10805 10805 10805 10805 10806 10807 10808 10808 10809 10809 10810 10810 10811 10811 10812 10812 10812 10813 10813 10813 10813 10814 10814 10814 10814 10814 10814 10814 10815 10815 10815 10815 10815 10815 10814 10814 10814 10814 10813 10813 10813 10813 10814 10814 10814 10814 10813 10812 10810 10809 10808 10807 10806 10805 10805 10805 10805 10804 10804 10803 10803 10803 10802 10802 10802 10801
10774 10775 10776 10777 10778 10780 10781 10783 10784 10786 10787 10788 10790 10792 10794 10795 10796 10797 10798 10799 10800 10801 10802 10803 10803 10803 10804 10805 10805 10806 10806 10807 10808 10808 10808 10809 10809 10810 10810 10810 10810 10811 10811 10811 10811 10812 10812 10812 10812 10812 10813 10813 10813 10813 10813 10813 10813 10812 10812 10812 10812 10812 10813 10813 10813 10813 10814 10814 10813 10812 10811 10810 10809 10808 10807 10805 10804 10804 10804 10804 10803 10803 10802 10802 10802 10801 10801 10800
10772 10773 10774 10775 10776 10778 10779 10780 10782 10783 10784 10786 10787 10789 10791 10792 10794 10794 10795 10796 10797 10798 10800 10800 10800 10800 10801 10803 10803 10803 10804 10804 10805 10805 10806 10806 10807 10807 10808 10808 10808 10808 10809 10809 10809 10809 10810 10810 10810 10810 10811 10811 10811 10811 10811 10811 10811 10811 10810 10810 10810 10811 10811 10812 10812 10812 10812 10812 10812 10812 10812 10811 10809 10809 10808 10807 10805 10804 10803 10803 10803 10803 10801 10800 10800 10799 10799 10798
10770 10771 10772 10773 10774 10775 10776 10778 10779 10780 10782 10783 10785 10786 10788 10789 10791 10791 10792 10793 10794 10796 10797 10797 10797 10797 10798 10800 10800 10800 10801 10802 10802 10802 10803 10803 10804 10805 10805 10805 10805 10805 10806 10807 10807 10807 10807 10807 10808 10808 10808 10809 10809 10809 10808 10808 10809 10809 10808 10808 10808 10809 10809 10809 10810 10810 10810 10810 10811 10811 10811 10811 10809 10808 10807 10808 10807 10805 10804 10803 10802 10801 10801 10800 10798 10797 10797 10797
10768 10769 10770 10771 10772 10773 10774 10775 10776 10777 10779 10780 10782 10783 10784 10786 10787 10788 10789 10790 10791 10792 10793 10794 10794 10794 10795 10796 10797 10797 10798 10799 10799 10799 10800 10801 10801 10802 10802 10802 10802 10803 10803 10803 10804 10804 10804 10804 10804 10805 10805 10806 10806 10806 10806 10806 10806 10807 10807 10807 10807 10807 10807 10807 10807 10807 10807 10807 10808 10808 10809 10809 10809 10808 10806 10806 10806 10805 10803 10802 10801 10800 10800 10800 10799 10797 10796 10796
10766 10767 10768 10769 10770 10770 10771 10772 10773 10775 10776 10777 10779 10780 10781 10782 10784 10785 10786 10787 10788 10789 10790 10791 10791 10791 10791 10792 10794 10794 10795 10796 10796 10796 10797 10798 10798 10799 10799 10799 10799 10800 10800 10800 10801 10801 10801 10801 10801 10802 10802 10802 10803 10803 10803 10803 10804 10804 10804 10804 10805 10804 10804 10804 10804 10803 10803 10803 10804 10805 10805 10806 10806 10807 10805 10804 10804 10803 10802 10800 10799 10799 10799 10798 10798 10796 10795 10794
10763 10764 10765 10766 10767 10768 10768 10769 10770 10772 10773 10774 10775 10776 10777 10779 10780 10781 10782 10783 10784 10785 10786 10787 10788 10788 10789 10789 10790 10791 10792 10792 10792 10793 10794 10794 10795 10795 10796 10796 10796 10797 10797 10797 10798 10798 10798 10798 10799 10800 10799 10799 10799 10800 10800 10800 10801 10801 10801 10801 10802 10802 10802 10801 10799 10798 10799 10800 10801 10802 10802 10801 10802 10803 10803 10802 10801 10800 10800 10798 10797 10796 10796 10796 10795 10793 10793 10792
10760 10761 10762 10763 10764 10765 10766 10766 10768 10769 10770 10771 10772 10773 10774 10775 10776 10777 10779 10780 10780 10781 10782 10784 10785 10786 10787 10787 10787 10788 10788 10787 10788 10791 10791 10791 10791 10792 10792 10793 10793 10793 10794 10794 10794 10794 10794 10795 10796 10796 10796 10796 10796 10796 10797 10798 10798 10797 10797 10798 10798 10798 10797 10796 10795 10795 10796 10796 10797 10797 10798 10797 10796 10797 10799 10799 10798 10798 10797 10795 10794 10793 10793 10792 10790 10789 10788 10788
10758 10758 10759 10760 10761 10762 10763 10764 10765 10766 10767 10768 10769 10769 10770 10771 10772 10773 10775 10775 10776 10777 10779 10780 10781 10782 10783 10784 10783 10784 10784 10783 10785 10787 10787 10787 10787 10788 10788 10789 10789 10790 10791 10791 10791 10789 10789 10791 10791 10792 10793 10792 10791 10792 10794 10795 10795 10793 10793 10794 10793 10793 10792 10792 10792 10793 10793 10792 10792 10792 10794 10794 10792 10791 10793 10794 10794 10794 10794 10793 10791 10790 10789 10787 10786 10784 10784 10784
10755 10756 10756 10757 10758 10759 10760 10761 10762 10763 10764 10765 10765 10766 10767 10767 10768 10769 10771 10771 10772 10774 10776 10777 10778 10778 10779 10780 10780 10781 10781 10780 10781 10783 10783 10783 10783 10783 10784 10784 10785 10786 10787 10788 10787 10786 10786 10787 10788 10788 10789 10788 10787 10788 10790 10792 10791 10789 10789 10789 10789 10789 10789 10788 10788 10788 10789 10789 10788 10787 10788 10790 10790 10787 10787 10789 10789 10789 10789 10789 10788 10786 10784 10783 10782 10780 10779 10780
10752 10752 10753 10754 10755 10756 10757 10758 10759 10760 10761 10761 10762 10763 10763 10764 10765 10766 10767 10767 10767 10770 10772 10773 10775 10774 10773 10775 10777 10777 10777 10777 10777 10778 10777 10777 10778 10780 10780 10780 10781 10782 10784 10784 10782 10782 10783 10784 10785 10785 10785 10785 10784 10784 10786 10787 10786 10784 10784 10785 10785 10786 10785 10784 10784 10784 10784 10786 10786 10782 10781 10785 10787 10784 10783 10784 10784 10783 10783 10784 10784 10782 10780 10778 10777 10776 10775 10775
10748 10749 10750 10751 10751 10752 10753 10754 10755 10756 10757 10758 10758 10759 10759 10760 10761 10762 10763 10763 10764 10767 10769 10770 10772 10770 10768 10770 10773 10773 10772 10773 10773 10772 10772 10774 10775 10775 10776 10776 10777 10778 10779 10779 10778 10778 10779 10780 10781 10782 10782 10781 10780 10778 10779 10781 10781 10780 10780 10780 10781 10782 10781 10779 10779 10779 10780 10782 10782 10777 10776 10780 10783 10780 10777 10777 10778 10778 10778 10779 10779 10778 10777 10774 10772 10771 10770 10770
10744 10745 10746 10747 10748 10749 10749 10750 10751 10752 10753 10754 10754 10755 10756 10756 10757 10759 10760 10760 10761 10763 10765 10766 10767 10765 10764 10765 10766 10767 10767 10768 10770 10768 10767 10770 10771 10771 10772 10772 10772 10773 10774 10775 10774 10774 10776 10777 10777 10778 10777 10777 10775 10774 10773 10774 10776 10776 10775 10775 10775 10775 10775 10775 10774 10774 10776 10778 10776 10773 10772 10776 10779 10776 10770 10769 10771 10770 10771 10772 10772 10773 10773 10771 10769 10768 10766 10765
10741 10741 10742 10743 10744 10745 10745 10746 10747 10748 10749 10749 10750 10751 10752 10752 10754 10756 10757 10757 10758 10759 10759 10759 10759 10758 10758 10757 10758 10761 10762 10763 10766 10765 10763 10764 10765 10766 10767 10767 10768 10768 10768 10771 10771 10771 10771 10772 10773 10774 10773 10772 10771 10770 10769 10769 10769 10770 10769 10769 10769 10767 10768 10769 10769 10770 10772 10772 10770 10768 10768 10770 10775 10772 10765 10763 10765 10763 10763 10763 10764 10766 10767 10766 10765 10765 10763 10762
10737 10737 10738 10739 10740 10740 10741 10742 10743 10744 10745 10745 10746 10746 10747 10748 10751 10753 10753 10753 10753 10752 10751 10751 10752 10751 10751 10752 10754 10757 10758 10760 10763 10763 10760 10759 10760 10760 10760 10762 10763 10763 10763 10765 10768 10769 10767 10767 10768 10768 10768 10768 10766 10764 10764 10763 10762 10762 10762 10762 10762 10761 10761 10762 10762 10763 10766 10767 10764 10763 10764 10765 10767 10765 10760 10759 10758 10757 10756 10756 10756 10758 10759 10759 10759 10759 10759 10758
10733 10734 10734 10735 10735 10736 10737 10738 10739 10740 10740 10741 10741 10742 10743 10745 10748 10748 10747 10747 10747 10746 10744 10746 10748 10747 10746 10748 10752 10754 10754 10755 10758 10759 10758 10756 10754 10753 10752 10754 10756 10757 10758 10760 10763 10765 10764 10763 10762 10761 10761 10762 10761 10760 10760 10758 10756 10754 10754 10754 10755 10753 10754 10756 10755 10756 10759 10760 10759 10759 10760 10762 10760 10756 10754 10752 10751 10750 10750 10751 10751 10751 10751 10751 10752 10753 10754 10754
10729 10729 10730 10730 10731 10731 10732 10733 10734 10735 10735 10736 10737 10738 10740 10743 10745 10743 10741 10742 10741 10739 10738 10742 10745 10742 10741 10744 10748 10750 10749 10749 10752 10752 10751 10750 10748 10746 10744 10743 10747 10752 10755 10757 10759 10761 10759 10757 10756 10756 10755 10755 10755 10756 10757 10754 10749 10746 10745 10745 10745 10746 10748 10750 10749 10750 10753 10755 10755 10753 10753 10755 10754 10750 10746 10744 10743 10742 10743 10746 10748 10747 10745 10743 10745 10747 10749 10749
10724 10725 10725 10725 10726 10727 10728 10728 10729 10730 10730 10731 10732 10734 10736 10739 10740 10738 10737 10735 10735 10733 10732 10736 10740 10739 10738 10740 10743 10745 10742 10742 10745 10743 10742 10742 10741 10738 10736 10734 10739 10748 10752 10753 10754 10755 10753 10751 10751 10750 10749 10749 10750 10750 10750 10747 10742 10740 10739 10736 10734 10737 10741 10743 10744 10745 10746 10749 10752 10749 10747 10748 10746 10743 10737 10733 10732 10730 10731 10734 10736 10738 10737 10736 10737 10740 10743 10745
10719 10719 10720 10720 10721 10722 10723 10723 10724 10725 10725 10726 10727 10730 10732 10733 10734 10733 10731 10728 10728 10728 10727 10731 10735 10735 10735 10736 10737 10738 10736 10736 10737 10735 10734 10735 10732 10731 10730 10730 10736 10744 10748 10747 10749 10751 10749 10746 10746 10744 10741 10742 10743 10742 10740 10738 10736 10734 10732 10730 10728 10729 10731 10734 10737 10740 10739 10742 10748 10746 10744 10742 10738 10736 10731 10725 10725 10723 10720 10721 10721 10723 10725 10725 10727 10730 10733 10736
10713 10714 10715 10715 10716 10717 10717 10718 10719 10719 10720 10721 10722 10725 10726 10726 10728 10726 10724 10723 10723 10723 10723 10724 10728 10730 10730 10731 10731 10731 10730 10730 10729 10728 10728 10727 10724 10725 10726 10728 10734 10740 10742 10741 10742 10744 10744 10741 10739 10739 10736 10734 10734 10733 10729 10727 10728 10727 10725 10725 10726 10724 10723 10723 10726 10729 10729 10733 10741 10741 10739 10736 10732 10729 10724 10720 10721 10718 10713 10713 10715 10715 10715 10715 10718 10720 10723 10726
10708 10708 10709 10710 10711 10711 10712 10713 10714 10714 10715 10715 10716 10719 10719 10719 10721 10720 10718 10717 10718 10719 10719 10719 10720 10722 10722 10723 10725 10725 10723 10723 10722 10722 10722 10719 10716 10719 10722 10724 10728 10733 10735 10736 10735 10735 10737 10736 10733 10732 10731 10728 10727 10724 10720 10717 10719 10720 10718 10718 10719 10718 10718 10717 10716 10718 10719 10722 10729 10731 10729 10727 10724 10720 10716 10714 10714 10710 10706 10706 10709 10710 10709 10709 10712 10714 10717 10720
10702 10702 10704 10705 10705 10705 10706 10707 10708 10708 10709 10709 10710 10713 10713 10712 10713 10714 10712 10711 10712 10713 10713 10713 10715 10715 10714 10716 10718 10718 10717 10716 10716 10716 10715 10712 10710 10712 10716 10718 10721 10724 10727 10730 10729 10728 10729 10731 10730 10728 10725 10722 10718 10716 10714 10712 10710 10711 10711 10709 10709 10711 10713 10713 10711 10710 10709 10712 10717 10720 10721 10718 10714 10710 10707 10705 10703 10701 10700 10700 10701 10703 10703 10702 10703 10705 10709 10712
10696 10696 10697 10699 10699 10698 10699 10701 10702 10702 10702 10702 10703 10705 10706 10705 10706 10706 10706 10705 10705 10705 10706 10707 10708 10708 10708 10710 10711 10712 10711 10709 10708 10708 10707 10705 10704 10707 10711 10713 10715 10716 10718 10720 10721 10720 10721 10724 10726 10724 10720 10715 10710 10707 10706 10706 10704 10703 10702 10701 10701 10704 10705 10705 10705 10702 10699 10702 10707 10710 10715 10713 10705 10700 10697 10693 10691 10691 10692 10692 10692 10693 10693 10693 10694 10695 10698 10701
10691 10690 10690 10691 10692 10692 10693 10694 10696 10697 10696 10696 10697 10697 10697 10698 10699 10700 10700 10699 10699 10699 10698 10699 10701 10702 10703 10703 10704 10704 10705 10703 10701 10700 10700 10698 10698 10701 10705 10709 10710 10709 10707 10708 10710 10712 10713 10715 10717 10716 10715 10711 10705 10700 10696 10696 10697 10697 10696 10695 10694 10694 10694 10694 10697 10695 10690 10692 10696 10698 10708 10712 10700 10691 10688 10683 10681 10682 10681 10680 10681 10681 10681 10682 10684 10686 10687 10689
10686 10685 10683 10683 10686 10686 10687 10688 10690 10692 10691 10689 10690 10689 10689 10691 10694 10695 10696 10694 10692 10691 10691 10693 10695 10696 10697 10697 10697 10696 10697 10697 10695 10694 10694 10692 10692 10694 10698 10702 10703 10701 10699 10698 10700 10703 10704 10704 10705 10706 10707 10706 10701 10697 10691 10687 10688 10689 10688 10688 10686 10684 10684 10682 10686 10687 10683 10684 10684 10682 10696 10707 10697 10688 10684 10676 10672 10672 10668 10667 10669 10670 10671 10672 10674 10676 10677 10678
10681 10681 10677 10677 10680 10681 10681 10683 10685 10686 10686 10683 10682 10681 10682 10684 10687 10689 10690 10689 10687 10685 10685 10687 10689 10690 10692 10692 10690 10689 10690 10691 10691 10689 10688 10686 10685 10686 10691 10695 10695 10693 10692 10690 10691 10693 10693 10693 10695 10697 10698 10698 10695 10692 10688 10684 10683 10681 10680 10679 10677 10675 10674 10671 10673 10676 10675 10677 10674 10668 10681 10694 10689 10683 10680 10672 10667 10664 10659 10656 10655 10656 10660 10663 10666 10668 10668 10669
10674 10674 10671 10671 10674 10675 10675 10677 10678 10680 10680 10677 10675 10674 10675 10678 10680 10682 10683 10682 10682 10681 10680 10680 10682 10684 10685 10685 10684 10684 10684 10685 10685 10684 10682 10680 10678 10678 10682 10686 10686 10685 10684 10683 10684 10686 10684 10685 10688 10689 10689 10689 10687 10684 10682 10681 10679 10678 10677 10673 10670 10667 10663 10661 10662 10663 10665 10668 10664 10659 10668 10679 10678 10674 10671 10666 10662 10658 10654 10649 10644 10641 10644 10649 10653 10657 10659 10659
10667 10667 10664 10664 10668 10670 10669 10670 10671 10672 10672 10670 10669 10668 10669 10671 10673 10674 10675 10674 10675 10676 10675 10674 10676 10678 10677 10677 10678 10679 10679 10680 10679 10677 10675 10674 10673 10672 10673 10674 10674 10674 10674 10675 10677 10678 10677 10678 10680 10681 10682 10682 10679 10676 10675 10675 10674 10673 10674 10671 10667 10661 10654 10652 10653 10652 10652 10653 10652 10653 10656 10663 10668 10665 10660 10656 10653 10651 10650 10647 10640 10635 10632 10633 10636 10640 10645 10647
10661 10660 10657 10657 10660 10662 10662 10663 10664 10665 10665 10663 10662 10662 10662 10662 10664 10666 10667 10667 10668 10669 10670 10669 10670 10671 10670 10670 10671 10672 10673 10673 10673 10671 10669 10668 10667 10666 10665 10662 10660 10661 10665 10667 10668 10668 10669 10671 10671 10672 10674 10674 10673 10670 10669 10669 10668 10667 10668 10666 10662 10656 10648 10644 10643 10644 10641 10637 10642 10649 10643 10642 10655 10660 10652 10646 10642 10641 10643 10641 10637 10633 10629 10627 10626 10626 10629 10631
10654 10653 10650 10650 10652 10654 10654 10654 10656 10658 10658 10657 10656 10655 10654 10653 10655 10657 10659 10660 10660 10662 10663 10664 10664 10664 10664 10663 10663 10664 10665 10664 10664 10665 10664 10663 10661 10659 10657 10654 10649 10650 10654 10656 10657 10657 10659 10661 10662 10664 10665 10664 10663 10662 10660 10661 10663 10663 10663 10662 10657 10650 10644 10638 10633 10630 10626 10621 10632 10643 10633 10625 10639 10650 10646 10639 10633 10632 10633 10632 10629 10627 10625 10623 10621 10620 10618 10616
10645 10646 10644 10642 10643 10645 10646 10646 10647 10649 10649 10649 10649 10647 10646 10646 10646 10648 10649 10651 10652 10654 10656 10658 10658 10659 10658 10655 10653 10653 10655 10655 10655 10656 10657 10657 10657 10654 10651 10647 10643 10641 10640 10640 10642 10645 10647 10650 10652 10654 10656 10655 10653 10650 10649 10649 10653 10657 10659 10658 10652 10645 10642 10637 10628 10620 10613 10606 10612 10624 10623 10621 10629 10635 10633 10628 10623 10621 10621 10620 10619 10619 10618 10615 10613 10611 10607 10603
10636 10637 10637 10635 10633 10633 10635 10638 10640 10640 10640 10641 10641 10638 10637 10638 10638 10639 10641 10642 10642 10644 10648 10650 10649 10649 10649 10645 10642 10642 10645 10647 10647 10649 10650 10650 10650 10649 10646 10641 10638 10635 10631 10629 10629 10630 10633 10637 10639 10640 10644 10647 10645 10639 10636 10636 10641 10648 10654 10651 10642 10638 10639 10633 10622 10617 10610 10601 10601 10605 10607 10614 10620 10618 10616 10616 10612 10608 10606 10605 10607 10609 10608 10607 10605 10601 10596 10591
10627 10628 10629 10628 10625 10623 10624 10626 10629 10631 10631 10631 10632 10631 10631 10631 10630 10630 10631 10631 10633 10634 10637 10639 10638 10637 10637 10635 10633 10634 10637 10640 10641 10641 10641 10639 10638 10639 10637 10635 10633 10629 10625 10624 10620 10617 10617 10620 10623 10623 10628 10639 10639 10627 10622 10623 10627 10639 10648 10642 10630 10628 10630 10623 10614 10612 10607 10599 10600 10600 10599 10605 10610 10605 10601 10600 10596 10593 10592 10592 10594 10596 10596 10596 10594 10591 10587 10581
10618 10618 10619 10619 10617 10615 10615 10614 10616 10619 10620 10620 10623 10625 10624 10623 10622 10621 10618 10618 10623 10625 10626 10627 10626 10625 10626 10625 10626 10628 10630 10632 10632 10631 10629 10627 10626 10627 10627 10628 10628 10624 10621 10617 10612 10609 10606 10604 10607 10605 10608 10625 10630 10616 10609 10610 10613 10629 10640 10629 10616 10614 10615 10614 10610 10604 10597 10592 10595 10596 10594 10597 10601 10599 10594 10587 10580 10577 10577 10577 10579 10580 10580 10580 10581 10579 10575 10570
10607 10607 10608 10609 10608 10606 10606 10605 10605 10607 10607 10608 10612 10615 10614 10612 10612 10612 10610 10608 10612 10615 10615 10615 10615 10613 10614 10616 10618 10621 10623 10623 10622 10619 10617 10616 10616 10617 10618 10619 10618 10616 10614 10609 10604 10602 10598 10594 10595 10590 10590 10608 10616 10605 10597 10596 10603 10622 10625 10609 10602 10602 10602 10604 10601 10591 10585 10585 10585 10586 10585 10586 10588 10589 10587 10579 10571 10569 10567 10566 10566 10565 10563 10563 10563 10563 10561 10557